DLH3PF LIRF-EDDF

Flight info

Callsign DLH3PF
Flight time 1h 25m
Altitude 34000
Route SOVAN DCT AMTEL DCT BORMI DCT OZE DCT NAXAV DCT UNIMI L12 MOGTI Q163 OLASO/N0446F320 Q163 HAFUN/N0406F240 Q163 ETASA T163 SPESA SPESA5B
Aircraft A321/M-SDE3FGHIRWY/LB1

Departure

Time 2026-05-04 14:36
Airport Rome–Fiumicino Leonardo da Vinci International Airport (LIRF)

Arrival

Time 2026-05-04 16:01
Airport Frankfurt Main Airport (EDDF)
Time Latitude Longitude Altitude Speed Heading
2026-05-04 13:50 41.79799 12.25690 16 ft 0 kts 295°
2026-05-04 14:25 41.79799 12.25692 14 ft 2 kts 295°
2026-05-04 14:25 41.79790 12.25718 16 ft 3 kts 296°
2026-05-04 14:26 41.79775 12.25741 15 ft 4 kts 349°
2026-05-04 14:26 41.79752 12.25737 15 ft 2 kts 25°
2026-05-04 14:26 41.79764 12.25745 15 ft 4 kts 25°
2026-05-04 14:26 41.79789 12.25760 16 ft 3 kts 25°
2026-05-04 14:27 41.79792 12.25762 15 ft 0 kts 25°
2026-05-04 14:29 41.79796 12.25765 15 ft 1 kts 25°
2026-05-04 14:30 41.79809 12.25773 15 ft 3 kts 25°
2026-05-04 14:30 41.79831 12.25786 14 ft 5 kts 25°
2026-05-04 14:30 41.79970 12.25883 14 ft 16 kts 25°
2026-05-04 14:31 41.80072 12.25944 14 ft 16 kts 26°
2026-05-04 14:31 41.80183 12.26014 15 ft 9 kts 24°
2026-05-04 14:32 41.80348 12.26117 16 ft 14 kts 24°
2026-05-04 14:32 41.80433 12.26168 16 ft 13 kts 20°
2026-05-04 14:32 41.80515 12.26205 16 ft 13 kts 51°
2026-05-04 14:32 41.80528 12.26241 16 ft 13 kts 66°
2026-05-04 14:33 41.80546 12.26304 16 ft 13 kts 70°
2026-05-04 14:33 41.80579 12.26422 16 ft 14 kts 69°
2026-05-04 14:33 41.80613 12.26546 16 ft 14 kts 70°
2026-05-04 14:33 41.80648 12.26675 15 ft 15 kts 70°
2026-05-04 14:34 41.80686 12.26812 14 ft 16 kts 70°
2026-05-04 14:34 41.80725 12.26955 14 ft 15 kts 70°
2026-05-04 14:34 41.80791 12.27039 13 ft 14 kts
2026-05-04 14:34 41.80885 12.27004 13 ft 14 kts 340°
2026-05-04 14:35 41.80959 12.26944 12 ft 12 kts 285°
2026-05-04 14:35 41.80934 12.26839 15 ft 13 kts 249°
2026-05-04 14:35 41.80840 12.26502 18 ft 73 kts 249°
2026-05-04 14:35 41.80588 12.25589 17 ft 134 kts 250°
2026-05-04 14:36 41.80204 12.24207 48 ft 177 kts 249°
2026-05-04 14:36 41.79812 12.22714 879 ft 165 kts 247°
2026-05-04 14:36 41.79433 12.21259 1484 ft 171 kts 250°
2026-05-04 14:36 41.79357 12.19579 1801 ft 193 kts 276°
2026-05-04 14:37 41.79884 12.17842 2233 ft 211 kts 302°
2026-05-04 14:37 41.80826 12.16305 2763 ft 214 kts 308°
2026-05-04 14:37 41.81780 12.14743 3250 ft 218 kts 306°
2026-05-04 14:37 41.82729 12.13137 3746 ft 221 kts 306°
2026-05-04 14:38 41.83680 12.11511 4253 ft 222 kts 307°
2026-05-04 14:38 41.84908 12.10223 4723 ft 228 kts 333°
2026-05-04 14:38 41.86455 12.09539 5017 ft 243 kts 346°
2026-05-04 14:38 41.88166 12.08963 5179 ft 266 kts 345°
2026-05-04 14:39 41.90029 12.08292 5485 ft 284 kts 344°
2026-05-04 14:39 41.91934 12.07585 6077 ft 290 kts 343°
2026-05-04 14:39 41.93893 12.06863 6768 ft 293 kts 343°
2026-05-04 14:40 41.97910 12.05940 8164 ft 295 kts 355°
2026-05-04 14:40 41.99975 12.05745 8784 ft 300 kts 355°
2026-05-04 14:40 42.02064 12.05561 9422 ft 303 kts 355°
2026-05-04 14:40 42.04175 12.05353 10085 ft 305 kts 354°
2026-05-04 14:41 42.06317 12.05137 10524 ft 316 kts 354°
2026-05-04 14:41 42.08576 12.04897 10670 ft 335 kts 354°
2026-05-04 14:41 42.13459 12.04402 11043 ft 367 kts 354°
2026-05-04 14:42 42.18638 12.03866 12088 ft 373 kts 352°
2026-05-04 14:42 42.21198 12.03399 12723 ft 372 kts 349°
2026-05-04 14:42 42.23766 12.02840 13289 ft 374 kts 347°
2026-05-04 14:43 42.26339 12.02233 13874 ft 376 kts 347°
2026-05-04 14:43 42.28921 12.01602 14387 ft 378 kts 346°
2026-05-04 14:43 42.31514 12.00967 14883 ft 380 kts 347°
2026-05-04 14:43 42.34128 12.00353 15380 ft 383 kts 347°
2026-05-04 14:44 42.36769 11.99753 15830 ft 387 kts 347°
2026-05-04 14:44 42.39441 11.99164 16347 ft 389 kts 347°
2026-05-04 14:44 42.42113 11.98572 16841 ft 391 kts 347°
2026-05-04 14:44 42.44812 11.97961 17300 ft 394 kts 347°
2026-05-04 14:45 42.47525 11.97346 17733 ft 397 kts 347°
2026-05-04 14:45 42.50264 11.96739 18164 ft 400 kts 347°
2026-05-04 14:45 42.53025 11.96122 18586 ft 402 kts 347°
2026-05-04 14:45 42.55785 11.95490 18996 ft 404 kts 347°
2026-05-04 14:46 42.58559 11.94855 19420 ft 405 kts 347°
2026-05-04 14:46 42.61343 11.94216 19796 ft 407 kts 347°
2026-05-04 14:46 42.64114 11.93578 20114 ft 411 kts 347°
2026-05-04 14:46 42.66943 11.92926 20455 ft 414 kts 347°
2026-05-04 14:47 42.69791 11.92275 20827 ft 416 kts 347°
2026-05-04 14:47 42.72653 11.91625 21206 ft 418 kts 347°
2026-05-04 14:47 42.75532 11.90970 21572 ft 420 kts 347°
2026-05-04 14:47 42.78424 11.90310 21955 ft 422 kts 347°
2026-05-04 14:48 42.81319 11.89624 22319 ft 423 kts 345°
2026-05-04 14:48 42.84140 11.88484 22659 ft 423 kts 335°
2026-05-04 14:48 42.86788 11.86750 23000 ft 423 kts 329°
2026-05-04 14:48 42.89384 11.84845 23347 ft 425 kts 329°
2026-05-04 14:49 42.91992 11.82934 23691 ft 427 kts 329°
2026-05-04 14:49 42.94616 11.81013 23987 ft 429 kts 329°
2026-05-04 14:49 42.97255 11.79086 24302 ft 430 kts 329°
2026-05-04 14:49 42.99899 11.77155 24625 ft 431 kts 329°
2026-05-04 14:50 43.02544 11.75221 24957 ft 432 kts 329°
2026-05-04 14:50 43.05200 11.73272 25262 ft 434 kts 329°
2026-05-04 14:50 43.07834 11.71335 25543 ft 436 kts 328°
2026-05-04 14:50 43.10510 11.69364 25845 ft 437 kts 328°
2026-05-04 14:51 43.13189 11.67389 26148 ft 439 kts 328°
2026-05-04 14:51 43.15881 11.65401 26445 ft 440 kts 328°
2026-05-04 14:51 43.18577 11.63408 26748 ft 441 kts 328°
2026-05-04 14:51 43.21394 11.61674 27030 ft 446 kts 337°
2026-05-04 14:52 43.24410 11.60566 27321 ft 452 kts 346°
2026-05-04 14:52 43.27549 11.60025 27552 ft 457 kts 350°
2026-05-04 14:52 43.30718 11.59554 27791 ft 459 kts 350°
2026-05-04 14:52 43.33894 11.59078 28036 ft 460 kts 350°
2026-05-04 14:53 43.37076 11.58598 28279 ft 461 kts 350°
2026-05-04 14:53 43.40276 11.58116 28491 ft 463 kts 350°
2026-05-04 14:53 43.43480 11.57634 28697 ft 464 kts 350°
2026-05-04 14:53 43.46689 11.57151 28907 ft 464 kts 350°
2026-05-04 14:54 43.49895 11.56668 29179 ft 464 kts 350°
2026-05-04 14:54 43.53102 11.56186 29481 ft 463 kts 350°
2026-05-04 14:54 43.56304 11.55704 29782 ft 462 kts 350°
2026-05-04 14:54 43.59492 11.55224 30090 ft 461 kts 350°
2026-05-04 14:55 43.62673 11.54742 30357 ft 460 kts 350°
2026-05-04 14:55 43.65814 11.54265 30600 ft 459 kts 350°
2026-05-04 14:55 43.68987 11.53779 30838 ft 459 kts 350°
2026-05-04 14:55 43.72159 11.53294 31083 ft 458 kts 350°
2026-05-04 14:56 43.75333 11.52808 31326 ft 458 kts 350°
2026-05-04 14:56 43.78493 11.52326 31569 ft 457 kts 350°
2026-05-04 14:56 43.81657 11.51846 31808 ft 457 kts 350°
2026-05-04 14:56 43.84812 11.51367 32061 ft 456 kts 350°
2026-05-04 14:57 43.87970 11.50889 32263 ft 457 kts 350°
2026-05-04 14:57 43.91125 11.50409 32486 ft 456 kts 350°
2026-05-04 14:57 43.94275 11.49927 32724 ft 455 kts 350°
2026-05-04 14:57 43.97421 11.49447 32964 ft 454 kts 350°
2026-05-04 14:58 43.99506 11.49129 33123 ft 454 kts 350°
2026-05-04 14:58 44.02643 11.48649 33360 ft 453 kts 349°
2026-05-04 14:58 44.06787 11.48011 33674 ft 452 kts 350°
2026-05-04 14:58 44.08898 11.47686 33826 ft 452 kts 349°
2026-05-04 14:59 44.13033 11.47044 34075 ft 452 kts 349°
2026-05-04 14:59 44.15133 11.46721 34107 ft 450 kts 349°
2026-05-04 15:00 44.24457 11.45283 34103 ft 449 kts 349°
2026-05-04 15:00 44.30624 11.44322 34082 ft 449 kts 349°
2026-05-04 15:01 44.39923 11.42876 34066 ft 448 kts 349°
2026-05-04 15:01 44.46125 11.41914 34074 ft 448 kts 350°
2026-05-04 15:02 44.52333 11.40948 34070 ft 449 kts 350°
2026-05-04 15:02 44.58544 11.39974 34074 ft 449 kts 350°
2026-05-04 15:03 44.64752 11.38997 34092 ft 449 kts 350°
2026-05-04 15:03 44.70965 11.38024 34085 ft 449 kts 350°
2026-05-04 15:04 44.77183 11.37048 34084 ft 450 kts 350°
2026-05-04 15:04 44.83401 11.36067 34094 ft 450 kts 350°
2026-05-04 15:05 44.89590 11.35104 34084 ft 450 kts 350°
2026-05-04 15:05 44.95821 11.34115 34079 ft 451 kts 350°
2026-05-04 15:06 45.02056 11.33128 34088 ft 451 kts 350°
2026-05-04 15:07 45.11427 11.31629 34055 ft 453 kts 350°
2026-05-04 15:07 45.17691 11.30625 34063 ft 453 kts 350°
2026-05-04 15:08 45.23959 11.29620 34075 ft 454 kts 351°
2026-05-04 15:08 45.30232 11.28606 34064 ft 454 kts 351°
2026-05-04 15:09 45.36520 11.27595 34066 ft 455 kts 351°
2026-05-04 15:09 45.42817 11.26589 34075 ft 455 kts 351°
2026-05-04 15:10 45.52244 11.25060 34064 ft 458 kts 351°
2026-05-04 15:10 45.58484 11.24023 34974 ft 436 kts 350°
2026-05-04 15:11 45.61490 11.23492 35257 ft 436 kts 350°
2026-05-04 15:11 45.64528 11.22958 34812 ft 444 kts 351°
2026-05-04 15:11 45.67622 11.22465 34277 ft 451 kts 351°
2026-05-04 15:11 45.70775 11.21991 34079 ft 458 kts 352°
2026-05-04 15:12 45.73955 11.21514 34077 ft 461 kts 352°
2026-05-04 15:12 45.80342 11.20514 34089 ft 462 kts 351°
2026-05-04 15:13 45.86738 11.19456 34092 ft 463 kts 351°
2026-05-04 15:13 45.93130 11.18392 34094 ft 463 kts 351°
2026-05-04 15:14 45.99488 11.17343 34107 ft 463 kts 351°
2026-05-04 15:14 46.05934 11.17519 34133 ft 467 kts
2026-05-04 15:15 46.12283 11.19606 34158 ft 468 kts 12°
2026-05-04 15:15 46.18631 11.21767 34317 ft 468 kts 12°
2026-05-04 15:16 46.24962 11.23915 34810 ft 466 kts 11°
2026-05-04 15:16 46.28115 11.24986 35051 ft 465 kts 11°
2026-05-04 15:17 46.37624 11.28228 35071 ft 469 kts 11°
2026-05-04 15:17 46.47247 11.29839 35002 ft 461 kts 348°
2026-05-04 15:18 46.50330 11.28674 35000 ft 456 kts 335°
2026-05-04 15:18 46.53252 11.26883 35003 ft 456 kts 334°
2026-05-04 15:19 46.61944 11.21388 35068 ft 457 kts 333°
2026-05-04 15:19 46.70689 11.15803 35071 ft 458 kts 333°
2026-05-04 15:20 46.76526 11.12079 35063 ft 458 kts 333°
2026-05-04 15:20 46.82358 11.08355 35077 ft 458 kts 333°
2026-05-04 15:21 46.88203 11.04616 35080 ft 459 kts 333°
2026-05-04 15:22 46.96972 10.98965 35060 ft 459 kts 333°
2026-05-04 15:22 47.05747 10.93293 35045 ft 460 kts 333°
2026-05-04 15:23 47.11600 10.89496 35037 ft 460 kts 333°
2026-05-04 15:23 47.17452 10.85692 35037 ft 460 kts 333°
2026-05-04 15:24 47.29115 10.78080 35042 ft 460 kts 333°
2026-05-04 15:25 47.34956 10.74260 35027 ft 459 kts 333°
2026-05-04 15:26 47.43771 10.68669 35029 ft 460 kts 335°
2026-05-04 15:26 47.52738 10.63591 35032 ft 460 kts 336°
2026-05-04 15:27 47.61685 10.58420 35015 ft 460 kts 335°
2026-05-04 15:28 47.70601 10.53125 35013 ft 460 kts 335°
2026-05-04 15:29 47.79491 10.47871 35005 ft 460 kts 335°
2026-05-04 15:30 48.00319 10.35500 34997 ft 460 kts 335°
2026-05-04 15:31 48.09280 10.30312 35002 ft 461 kts 338°
2026-05-04 15:32 48.24484 10.22592 34990 ft 461 kts 338°
2026-05-04 15:34 48.39582 10.14617 34988 ft 461 kts 338°
2026-05-04 15:34 48.48668 10.09820 34998 ft 461 kts 338°
2026-05-04 15:35 48.57749 10.05012 35004 ft 461 kts 338°
2026-05-04 15:35 48.60777 10.03404 34858 ft 461 kts 338°
2026-05-04 15:36 48.66820 10.00187 34387 ft 460 kts 338°
2026-05-04 15:36 48.69834 9.98581 34160 ft 460 kts 337°
2026-05-04 15:36 48.72848 9.96968 33910 ft 460 kts 337°
2026-05-04 15:37 48.75875 9.95344 33633 ft 461 kts 337°
2026-05-04 15:37 48.78894 9.93724 33357 ft 461 kts 337°
2026-05-04 15:37 48.81929 9.92094 32641 ft 464 kts 337°
2026-05-04 15:37 48.84981 9.90451 31765 ft 467 kts 337°
2026-05-04 15:38 48.88053 9.88799 30920 ft 469 kts 337°
2026-05-04 15:38 48.91131 9.87140 29930 ft 473 kts 337°
2026-05-04 15:38 48.94240 9.85456 29138 ft 471 kts 337°
2026-05-04 15:38 48.97323 9.83786 28604 ft 470 kts 337°
2026-05-04 15:39 49.00351 9.82153 28008 ft 466 kts 337°
2026-05-04 15:39 49.03399 9.80513 27402 ft 463 kts 337°
2026-05-04 15:39 49.09423 9.77277 26197 ft 455 kts 337°
2026-05-04 15:40 49.12394 9.75663 25610 ft 452 kts 337°
2026-05-04 15:40 49.15354 9.74041 25012 ft 458 kts 337°
2026-05-04 15:40 49.18424 9.72341 24399 ft 474 kts 337°
2026-05-04 15:40 49.21532 9.70628 23780 ft 475 kts 337°
2026-05-04 15:41 49.24642 9.68927 23116 ft 473 kts 338°
2026-05-04 15:41 49.27724 9.67251 22518 ft 469 kts 338°
2026-05-04 15:41 49.30790 9.65586 21935 ft 466 kts 338°
2026-05-04 15:41 49.33831 9.63933 21362 ft 462 kts 338°
2026-05-04 15:42 49.36850 9.62286 20803 ft 458 kts 337°
2026-05-04 15:42 49.39838 9.60643 20275 ft 454 kts 337°
2026-05-04 15:42 49.42803 9.59006 19740 ft 451 kts 337°
2026-05-04 15:42 49.45746 9.57379 19218 ft 448 kts 337°
2026-05-04 15:43 49.48665 9.55764 18689 ft 445 kts 337°
2026-05-04 15:43 49.51564 9.54159 18116 ft 441 kts 337°
2026-05-04 15:43 49.54444 9.52562 17550 ft 438 kts 337°
2026-05-04 15:43 49.57259 9.51001 16998 ft 434 kts 337°
2026-05-04 15:44 49.60088 9.49434 16445 ft 430 kts 338°
2026-05-04 15:44 49.62888 9.47882 15882 ft 426 kts 338°
2026-05-04 15:44 49.65661 9.46341 15306 ft 422 kts 338°
2026-05-04 15:44 49.68409 9.44807 14968 ft 419 kts 338°
2026-05-04 15:45 49.71204 9.43523 14668 ft 420 kts 349°
2026-05-04 15:45 49.74118 9.43218 14387 ft 420 kts 356°
2026-05-04 15:45 49.76990 9.43083 14014 ft 408 kts 356°
2026-05-04 15:45 49.79796 9.42952 13565 ft 398 kts 356°
2026-05-04 15:46 49.82530 9.42825 13090 ft 388 kts 357°
2026-05-04 15:46 49.85197 9.42698 12623 ft 380 kts 357°
2026-05-04 15:46 49.87817 9.42575 12152 ft 373 kts 357°
2026-05-04 15:46 49.90384 9.42454 11694 ft 366 kts 357°
2026-05-04 15:47 49.92907 9.42334 11220 ft 359 kts 357°
2026-05-04 15:47 49.95330 9.42220 10745 ft 337 kts 357°
2026-05-04 15:47 49.97608 9.42116 10286 ft 319 kts 357°
2026-05-04 15:47 49.99780 9.42020 9828 ft 306 kts 357°
2026-05-04 15:48 50.01865 9.41928 9324 ft 294 kts 357°
2026-05-04 15:48 50.03866 9.41837 8832 ft 283 kts 357°
2026-05-04 15:48 50.07719 9.41663 7861 ft 272 kts 357°
2026-05-04 15:49 50.09583 9.41556 7388 ft 263 kts 352°
2026-05-04 15:49 50.11325 9.40731 6939 ft 265 kts 332°
2026-05-04 15:49 50.12887 9.39217 6466 ft 266 kts 313°
2026-05-04 15:49 50.14019 9.36960 6035 ft 264 kts 301°
2026-05-04 15:50 50.15027 9.34579 5698 ft 263 kts 301°
2026-05-04 15:50 50.16010 9.32236 5393 ft 262 kts 301°
2026-05-04 15:50 50.17004 9.29851 5166 ft 263 kts 301°
2026-05-04 15:50 50.17999 9.27464 5026 ft 261 kts 301°
2026-05-04 15:51 50.18958 9.25133 4999 ft 247 kts 298°
2026-05-04 15:51 50.19597 9.22756 5004 ft 233 kts 284°
2026-05-04 15:51 50.19842 9.20291 5007 ft 228 kts 270°
2026-05-04 15:51 50.19709 9.17824 5006 ft 229 kts 256°
2026-05-04 15:52 50.19231 9.15453 5009 ft 230 kts 248°
2026-05-04 15:52 50.18680 9.13110 5009 ft 230 kts 248°
2026-05-04 15:52 50.18135 9.10774 5009 ft 229 kts 248°
2026-05-04 15:52 50.17589 9.08431 5007 ft 230 kts 248°
2026-05-04 15:53 50.17030 9.06098 5008 ft 230 kts 248°
2026-05-04 15:53 50.16474 9.03756 5009 ft 230 kts 248°
2026-05-04 15:53 50.15926 9.01416 5004 ft 227 kts 248°
2026-05-04 15:53 50.15408 8.99191 5016 ft 211 kts 248°
2026-05-04 15:54 50.14909 8.97058 5010 ft 207 kts 248°
2026-05-04 15:54 50.14437 8.95042 5009 ft 191 kts 248°
2026-05-04 15:54 50.13987 8.93123 5012 ft 188 kts 248°
2026-05-04 15:54 50.13541 8.91222 5007 ft 186 kts 248°
2026-05-04 15:55 50.13103 8.89356 5005 ft 179 kts 248°
2026-05-04 15:55 50.12678 8.87550 5005 ft 176 kts 248°
2026-05-04 15:55 50.12256 8.85755 4889 ft 176 kts 248°
2026-05-04 15:55 50.11836 8.83970 4681 ft 175 kts 248°
2026-05-04 15:56 50.11421 8.82207 4459 ft 169 kts 248°
2026-05-04 15:56 50.11157 8.81086 4297 ft 166 kts 249°
2026-05-04 15:56 50.10759 8.79400 4056 ft 164 kts 249°
2026-05-04 15:56 50.10372 8.77761 3823 ft 161 kts 250°
2026-05-04 15:57 50.09987 8.76130 3593 ft 160 kts 250°
2026-05-04 15:57 50.09602 8.74502 3370 ft 158 kts 251°
2026-05-04 15:57 50.09115 8.72446 3084 ft 149 kts 253°
2026-05-04 15:57 50.08873 8.71425 2933 ft 149 kts 253°
2026-05-04 15:58 50.08516 8.69919 2732 ft 147 kts 252°
2026-05-04 15:58 50.08161 8.68420 2518 ft 148 kts 253°
2026-05-04 15:58 50.07805 8.66918 2310 ft 147 kts 253°
2026-05-04 15:58 50.07453 8.65434 2103 ft 145 kts 252°
2026-05-04 15:59 50.07110 8.63991 1891 ft 143 kts 252°
2026-05-04 15:59 50.06765 8.62540 1697 ft 141 kts 252°
2026-05-04 15:59 50.06431 8.61136 1495 ft 140 kts 252°
2026-05-04 15:59 50.06092 8.59720 1286 ft 139 kts 251°
2026-05-04 16:00 50.05757 8.58303 1084 ft 140 kts 252°
2026-05-04 16:00 50.05433 8.56885 868 ft 142 kts 251°
2026-05-04 16:00 50.05083 8.55450 682 ft 143 kts 250°
2026-05-04 16:00 50.04724 8.54015 490 ft 142 kts 252°
2026-05-04 16:01 50.04392 8.52580 357 ft 136 kts 254°
2026-05-04 16:01 50.04111 8.51392 329 ft 94 kts 250°
2026-05-04 16:01 50.03945 8.50697 324 ft 43 kts 250°
2026-05-04 16:01 50.03835 8.50384 321 ft 26 kts 225°
2026-05-04 16:02 50.03736 8.50244 317 ft 16 kts 220°
2026-05-04 16:02 50.03646 8.50190 323 ft 12 kts 154°
2026-05-04 16:02 50.03658 8.50410 325 ft 10 kts 69°
2026-05-04 16:03 50.03682 8.50510 325 ft 10 kts 69°
2026-05-04 16:03 50.03708 8.50620 328 ft 13 kts 70°
2026-05-04 16:03 50.03744 8.50768 330 ft 16 kts 70°
2026-05-04 16:03 50.03784 8.50936 333 ft 16 kts 69°
2026-05-04 16:04 50.03825 8.51108 332 ft 17 kts 70°
2026-05-04 16:04 50.03915 8.51483 333 ft 20 kts 70°
2026-05-04 16:04 50.03962 8.51679 334 ft 21 kts 69°
2026-05-04 16:05 50.04014 8.51895 334 ft 21 kts 70°
2026-05-04 16:05 50.04065 8.52109 340 ft 21 kts 70°
2026-05-04 16:05 50.04166 8.52533 350 ft 20 kts 70°
2026-05-04 16:06 50.04215 8.52738 353 ft 20 kts 70°
2026-05-04 16:06 50.04347 8.53285 367 ft 23 kts 69°
2026-05-04 16:07 50.04399 8.53564 375 ft 17 kts 85°
2026-05-04 16:07 50.04439 8.54180 375 ft 21 kts 84°
2026-05-04 16:08 50.04454 8.54413 372 ft 23 kts 86°
2026-05-04 16:08 50.04211 8.54828 359 ft 17 kts 162°
2026-05-04 16:09 50.04076 8.54906 351 ft 0 kts 159°
2026-05-04 16:10 50.04044 8.54924 356 ft 7 kts 160°
2026-05-04 16:11 50.03863 8.55038 359 ft 14 kts 142°
2026-05-04 16:11 50.03864 8.55178 350 ft 14 kts 69°
2026-05-04 16:12 50.03977 8.55651 352 ft 18 kts 70°
2026-05-04 16:12 50.04033 8.55887 350 ft 0 kts 70°
2026-05-04 16:13 50.04033 8.55888 350 ft 0 kts 70°
2026-05-04 16:13 50.04104 8.55962 360 ft 10 kts 347°
2026-05-04 16:14 50.04246 8.55946 362 ft 11 kts 31°
2026-05-04 16:14 50.04342 8.55930 362 ft 0 kts 338°
2026-05-04 16:15 50.04348 8.55926 360 ft 2 kts 338°
2026-05-04 16:16 50.04419 8.55974 357 ft 9 kts 69°
2026-05-04 16:16 50.04450 8.56193 365 ft 5 kts 152°